Regional Weather Roundup
Issued by NWS Wakefield, VA

Home | Current Version | Previous Version | Text Only | Print | Product List | Glossary Off
Versions: 1 2 3 4 5 6 7 8 9 10 11 12 13 14 15 16 17 18 19 20 21 22 23 24 25 26 27

000
ASUS41 KAKQ 030815
RWRAKQ

REGIONAL WEATHER ROUNDUP
NATIONAL WEATHER SERVICE WAKEFIELD VA
300 AM EST SAT DEC 03 2016

Note: "fair" indicates few or no clouds below 12,000 feet with no
significant weather and/or obstructions to visibility. * = Denotes
station may not report precipitation (e.g., rain,snow,etc.),
thunder or fog.

VAZ042-051-052>054-056-030900-
NORTHERN VIRGINIA

CITY           SKY/WX    TMP DP  RH WIND       PRES   REMARKS
WASH NATIONAL  CLOUDY    45  29  53 NW13      30.14F
DULLES         CLOUDY    42  28  57 NW18      30.13R
FORT BELVOIR   CLOUDY    44  27  50 NW15      30.14S
QUANTICO       CLOUDY    43  27  53 NW5       30.17S
FREDERICKSBRG* PTCLDY    38  30  71 W5        30.16R
STAFFORD*      MOCLDY    38  28  68 CALM      30.20R
WARRENTON      CLEAR     41  24  50 NW12G17   30.14F
CULPEPER*      MOCLDY    36  28  72 CALM      30.17R
MANASSAS*      CLOUDY    45  28  53 NW10G17   30.15S
LEESBURG*      CLOUDY    43  32  65 NW9G16    30.15S
WINCHESTER     CLOUDY    39  28  65 NW7       30.15R
FRONT ROYAL*   CLOUDY    41  28  60 W5        30.14S
LURAY*         CLOUDY    41  30  65 SW3       30.15F
$$

VAZ048-049-060>072-079>083-030900-
CENTRAL AND SOUTH CENTRAL VIRGINIA

CITY           SKY/WX    TMP DP  RH WIND       PRES   REMARKS
RICHMOND       CLEAR     37  28  70 W5        30.17R
CHESTERFIELD*  FAIR      28  12  50 CALM      30.19R
PETERSBURG*    CLEAR     28  26  95 CALM      30.19R
HANOVER        CLEAR     33  27  78 NW5       30.19R
TAPPAHANNOCK*  NOT AVBL
QUINTON*       FAIR      32  31  96 CALM      30.17R
CHARLOTTSVILLE CLEAR     40  24  53 NW5       30.17R
GORDONSVILLE*  PTSUNNY   32  28  84 CALM      30.16R
ORANGE*          N/A     34  30  86 CALM      30.18R
LOUISA*        CLEAR     36  30  80 W5        30.15S
BUMPASS*       NOT AVBL
FARMVILLE*     CLEAR     35  28  75 CALM      30.19R
CREWE*         NOT AVBL
FORT PICKETT*  FAIR      33  25  72 CALM      30.19R
CHASE CITY*    FAIR      35  31  84 W5        30.21R
CLARKSVILLE*   FAIR      37  30  75 W3        30.21S
SOUTH HILL*    CLOUDY    37  30  77 NW3       30.26R
LAWRENCEVILLE* FAIR      32  29  89 CALM      30.19R
EMPORIA*       CLOUDY    32  30  93 CALM      30.22R
$$

VAZ088>098-030900-
SOUTHEAST VIRGINIA

CITY           SKY/WX    TMP DP  RH WIND       PRES   REMARKS
NORFOLK        NOT AVBL
VIRGINIA BEACH CLEAR     42  28  57 NW12G20   30.14S
NORFOLK NAVAL  PTCLDY    42  29  59 NW13      30.17S
WEST POINT*    PTCLDY    38  30  73 W5        30.18S
SALUDA*        FAIR      36  30  78 W5        30.15S
NEWPORT NEWS   CLEAR     38  29  70 NW6       30.16S
LANGLEY AFB    CLEAR     39  29  66 W7        30.15S
FORT EUSTIS    CLEAR     42  30  64 NW12      30.14S
WILLIAMSBURG*  CLEAR     36  32  87 CALM      30.17S
HR EXEC AP*    FAIR      34  28  80 NW5       30.15S
FRANKLIN*      PTCLDY    32  30  92 CALM      30.19S
US460-WAKEFLD  CLEAR     30  28  92 CALM      30.18S
$$

VAZ020-022-025-037-045-030900-
WEST CENTRAL AND SOUTHWEST VIRGINIA

CITY           SKY/WX    TMP DP  RH WIND       PRES   REMARKS
STAUNTON*      CLOUDY    36  25  65 CALM      30.19S
WAYNESBORO*    NOT AVBL
HOT SPRINGS VA CLOUDY    27  25  93 NW24G39   30.06  WCI  12
LYNCHBURG      CLEAR     31  25  78 CALM      30.21R
DANVILLE       PTCLDY    35  29  78 S3        30.24R
SOUTH BOSTON*  FAIR      37  27  65 W5        30.23R
MARTINSVILLE   CLEAR     37  26  64 NW3       30.27R
ROANOKE        CLOUDY    39  25  57 W12       30.24R
BLACKSBURG     CLOUDY    35  28  74 NW9       30.24R
DUBLIN*        CLOUDY    36  28  72 NW6G16    30.24R
MARION*        CLOUDY    34  28  77 W13       30.27R
HILLSVILLE*    CLOUDY    33  28  84 NW14G20   30.19R WCI  23
RICHLANDS*     CLOUDY    31  28  86 NW3       30.26R
WISE*          CLOUDY    32  28  86 CALM      30.28R
ABINGDON*      CLOUDY    37  29  75 NW3       30.29R
$$

MDZ021>025-VAZ099-100-030900-
SOUTHERN MARYLAND AND THE DELMARVA PENINSULA

CITY           SKY/WX    TMP DP  RH WIND       PRES   REMARKS
PATUXENT RIVER PTCLDY    40  26  57 W8        30.12F
BAY BRIDGE APT CLEAR     43  30  61 W15G21    30.10S
LEONARDTOWN    NOT AVBL
DOVER          CLEAR     41  31  65 W13       30.05F
GEORGETOWN     CLEAR     42  28  57 W9        30.08F
EASTON         CLEAR     44  29  55 NW13G23   30.13S
CAMBRIDGE      PTCLDY    41  28  60 W10G17    30.10F
SALISBURY      CLEAR     41  28  60 W8        30.09F
OCEAN CITY     CLEAR     40  28  62 W9        30.09S
WALLOPS ISLAND CLEAR     41  30  65 NW12      30.11S
ACCOMACK*      CLEAR     45  30  57 NW18G29   30.11F
$$

NCZ012>017-030>032-030900-
NORTH CENTRAL AND EASTERN NORTH CAROLINA

CITY           SKY/WX    TMP DP  RH WIND       PRES   REMARKS
ROANOKE RAPIDS FAIR      39  32  75 NW3       30.20R
RALEIGH        PTCLDY    43  29  57 VRB7      30.23R
ELIZABETH CITY CLEAR     41  31  67 NW8       30.17R
AHOSKIE*       PTCLDY    36  31  83 CALM      30.20R
EDENTON*       NOT AVBL
CURRITUCK*     CLEAR     42  31  67 NW3       30.16F
KILL DEVIL HLS PTCLDY    45  36  69 NW10G18   30.13S
MANTEO         PTCLDY    45  33  63 N16G24    30.15R
CAPE HATTERAS  NOT AVBL
TARBORO*       NOT AVBL
GOLDSBORO      PTCLDY    43  32  65 N6        30.20R
WASHINGTON     CLEAR     38  32  77 NW3       30.19R
GREENVILLE     CLEAR     41  32  70 CALM      30.21R
NEW BERN       NOT AVBL
WILMINGTON     PTCLDY    42  35  76 N3        30.20R
$$

VAZ048-030900-
ELSEWHERE

CITY           SKY/WX    TMP DP  RH WIND       PRES   REMARKS
HARRISBURG PA  NOT AVBL
BALTIMORE      MOCLDY    43  30  60 W9        30.11R
ANNAPOLIS      PTCLDY    45  29  53 W9        30.10F
ANDREWS AFB    CLOUDY    43  28  53 W10       30.11F
PHILADELPHIA   CLOUDY    43  30  60 W16       30.03F
HENDERSON NC   CLEAR     37  27  66 NW6       30.22R
GREENSBORO     MOCLDY    42  30  62 NW10      30.22R
ROCKY MOUNT    CLEAR     38  32  79 W3        30.22R
$$

VAZ100-030900-
MARINE

STATION/POSITION TIME  TEMP    WIND        PRES    WAVE   SWELL
                       AIR SEA DIR/SP/G            HT/PER HT/PER
                 (UTC) (F)     (DEG/KT/KT) (MB)    (FT/S) (FT/S)
BRANDYWINE LGT   0748   44     300/ 24/ 30   N/A
CAPE MAY NJ      0748   44 48  290/ 19/ 26 1017.4S
LEWES DE         0748   43 50  280/ 13/ 18 1018.2F
OCEAN-CITY-INLET 0742   42 50  310/ 11/ 14 1019.0F
WACHAPREAGUE VA  0748   44 50  290/  5/ 12 1019.5F
THOMAS POINT MD  0800   44 50  290/ 17/ 19   N/A
GOOSES REEF MD   0800   45 51  320/ 14/ 17 1020.5    1/ 2
COVE POINT MD    0748   43     320/ 11/ 14 1020.5F
SOLOMONS ISLAND  0742   43 52  280/  5/  8   N/A
BISHOPS HEAD MD  0748   45 45  300/ 17/ 22 1020.2F
PINEY POINT MD   0748          300/ 12/ 17   N/A
POTOMAC MD       0800   45 52  300/ 16/ 19 1019.5    2/ 3
CAMBRIDGE MD     0748   44 48  280/  8/ 13 1018.8F
LEWISETTA VA     0748   42 51  300/  8/ 10 1020.3F
RAPPAHANNOCK LGT 0748          300/ 22/ 25 1020.6F
STINGRAY PT      0800   44     320/ 14/ 17 1021.0    1/ 2
YORK RVR RNG VA  0748   43     310/ 11/ 13 1020.6R
YORKTOWN VA      0748   42 53  290/  9/ 11 1020.8R
JAMESTOWN VA     0800   44 54  300/ 14/ 16   N/A     1
DOMINION TERM VA 0748   45     360/ 10/ 14 1021.3F
KIPTOPEKE VA     0748      52  330/ 18/ 23   N/A
CHES BAY BRIDGE  0748   46 54  330/ 21/ 23 1020.7S
CAPE HENRY VA    0748   45     320/ 21/ 26   N/A
WILLOUBY STN VA  0748   43     320/ 11/ 13 1021.9S
S CRANEY ISL VA  0748   44     330/  6/ 12 1021.0F
CAPE HENRY BUOY  0742      56                N/A     5/ 5
1ST LANDING BUOY 0800   46 53              1021.2    3/ 3
CAPE CHARLES BUO 0756      56                N/A     4/ 3
OFFSHORE WE BUOY 0751      56                N/A     5/ 5
64NM E OF VA BCH 0750   49 60  330/ 23/ 27 1018.7S   7/ 6
DUCK PIER NC     0748   46 56  340/ 18/ 22 1020.1R
44100 DUCK FRF   0735      57                N/A     4/ 5
OREGON INLET NC  0736   47 56  320/ 15/ 19 1020.1R
HATTERAS NC      0748   49 60  330/ 21/ 24 1019.9R
DIAMOND SHLS NC  0750   53 75  340/ 23/ 27 1019.6R   5/ 5   2/ 8
CAPE LOOKOUT NC  0800   47     340/ 12/ 15 1021.4R
$$




USA.gov is the U.S. government's official web portal to all federal, state and local government web resources and services.